CW2293 Weather Reports


time (UTC)temp
F
wind
direction
speed
knots
gust
knots
rain 1hr
in
rain 24hr
in
rain mn
in
humidity
%
barometer
mb
20240416035802 0 257 0.0 0.0 0.00 0.00 0.00 2 886.4
20240416035301 0 261 0.9 1.7 0.00 0.00 0.00 2 886.4
20240416034801 0 50 1.7 2.6 0.00 0.00 0.00 2 886.4
20240416034301 0 35 0.0 0.0 0.00 0.00 0.00 2 886.4
20240416033801 0 35 0.0 0.9 0.00 0.00 0.00 2 886.4
20240416032801 0 205 1.7 1.7 0.00 0.00 0.00 2 886.4
20240416032301 0 31 0.0 0.0 0.00 0.00 0.00 2 886.4
20240416031801 0 31 0.0 0.0 0.00 0.00 0.00 2 886.4
20240416031301 0 31 0.0 0.0 0.00 0.00 0.00 2 886.4
20240416030801 0 31 0.0 1.7 0.00 0.00 0.00 2 886.4
20240416030301 0 335 0.0 0.0 0.00 0.00 0.00 2 886.4
20240416025302 0 335 0.0 0.0 0.00 0.00 0.00 2 886.4
20240416024803 0 336 0.9 0.9 0.00 0.00 0.00 2 886.4
20240416024301 0 83 0.0 0.0 0.00 0.00 0.00 2 886.4
20240416023801 0 83 0.0 1.7 0.00 0.00 0.00 2 886.4
20240416023302 0 236 0.0 0.0 0.00 0.00 0.00 2 886.4
20240416022802 0 236 0.0 0.0 0.00 0.00 0.00 2 886.4
20240416021801 0 236 0.0 0.0 0.00 0.00 0.00 2 886.4
20240416021301 0 236 1.7 7.8 0.00 0.00 0.00 2 886.4
20240416020301 0 326 0.0 0.0 0.00 0.00 0.00 2 886.4
20240416015802 0 326 0.0 1.7 0.00 0.00 0.00 2 886.4
20240416015301 0 1 0.0 1.7 0.00 0.00 0.00 2 886.4
20240416014802 0 1 0.0 0.0 0.00 0.00 0.00 2 886.4
20240416014301 0 1 0.0 0.0 0.00 0.00 0.00 2 886.4
20240416013802 0 1 0.0 0.0 0.00 0.00 0.00 2 886.4
20240416013302 0 1 0.0 1.7 0.00 0.00 0.00 2 886.4
20240416012801 0 264 0.0 1.7 0.00 0.00 0.00 2 886.4
20240416011301 0 261 0.0 0.0 0.00 0.00 0.00 2 886.4
20240416010801 0 261 0.0 0.0 0.00 0.00 0.00 2 886.4
20240416005801 0 317 1.7 4.3 0.00 0.00 0.00 2 886.4
20240416005302 0 287 1.7 4.3 0.00 0.00 0.00 2 886.4
20240416004801 0 290 4.3 8.7 0.00 0.00 0.00 2 886.4
20240416004302 0 261 3.5 7.8 0.00 0.00 0.00 2 886.4
20240416003802 0 339 4.3 8.7 0.00 0.00 0.00 2 886.4
20240416003303 0 269 4.3 14.8 0.00 0.00 0.00 2 886.4
20240416002801 0 90 1.7 5.2 0.00 0.00 0.00 2 886.4
20240416002301 0 295 2.6 7.0 0.00 0.00 0.00 2 886.4
20240416001801 0 321 1.7 5.2 0.00 0.00 0.00 2 886.4
20240416000801 0 341 1.7 6.1 0.00 0.00 0.00 2 886.4
20240416000301 0 301 4.3 7.0 0.00 0.00 0.00 2 886.4
20240415235302 0 328 2.6 13.0 0.00 0.00 0.00 2 886.4
20240415234801 0 290 2.6 7.0 0.00 0.00 0.00 2 886.4
20240415233801 0 238 3.5 10.4 0.00 0.00 0.00 2 886.4
20240415233302 0 309 4.3 8.7 0.00 0.00 0.00 2 886.4
20240415232801 0 338 7.8 13.0 0.00 0.00 0.00 2 886.4
20240415231801 0 327 5.2 11.3 0.00 0.00 0.00 2 886.4
20240415231300 0 282 4.3 11.3 0.00 0.00 0.00 2 886.4
20240415230803 0 288 5.2 11.3 0.00 0.00 0.00 2 886.4
20240415230301 0 321 2.6 7.0 0.00 0.00 0.00 2 886.4
20240415225801 0 315 2.6 7.0 0.00 0.00 0.00 2 886.4
20240415225301 0 347 3.5 10.4 0.00 0.00 0.00 2 886.4
20240415224301 0 293 6.1 13.0 0.00 0.00 0.00 2 886.4
20240415223801 0 337 5.2 8.7 0.00 0.00 0.00 2 886.4
20240415223302 0 287 6.1 20.0 0.00 0.00 0.00 2 886.4
20240415222802 0 343 4.3 10.4 0.00 0.00 0.00 2 886.4
20240415222302 0 340 4.3 7.8 0.00 0.00 0.00 2 886.4
20240415221801 0 284 5.2 12.2 0.00 0.00 0.00 2 886.4
20240415221301 0 300 4.3 10.4 0.00 0.00 0.00 2 886.4
20240415220801 0 298 4.3 13.0 0.00 0.00 0.00 2 886.4
20240415220301 0 329 5.2 11.3 0.00 0.00 0.00 2 886.4
20240415215302 0 311 6.1 13.9 0.00 0.00 0.00 2 886.4
20240415214801 0 325 4.3 7.0 0.00 0.00 0.00 2 886.4
20240415212801 0 313 7.8 15.6 0.00 0.00 0.00 2 886.4
20240415212302 0 20 4.3 11.3 0.00 0.00 0.00 2 886.4
20240415211801 0 293 5.2 12.2 0.00 0.00 0.00 2 886.4
20240415211302 0 334 5.2 11.3 0.00 0.00 0.00 2 886.4
20240415210801 0 270 10.4 19.1 0.00 0.00 0.00 2 886.4
20240415210301 0 294 6.1 11.3 0.00 0.00 0.00 2 886.4
20240415205801 0 303 5.2 8.7 0.00 0.00 0.00 2 886.4
20240415205301 0 294 5.2 11.3 0.00 0.00 0.00 2 886.4
20240415204802 0 293 6.1 12.2 0.00 0.00 0.00 2 886.4
20240415204301 0 349 2.6 15.6 0.00 0.00 0.00 2 886.4
20240415203801 0 272 6.1 20.0 0.00 0.00 0.00 2 886.4
20240415201801 0 342 5.2 15.6 0.00 0.00 0.00 2 886.4
20240415201303 0 302 5.2 11.3 0.00 0.00 0.00 2 886.4
20240415200802 0 304 7.8 17.4 0.00 0.00 0.00 2 886.4
20240415195801 0 296 8.7 13.9 0.00 0.00 0.00 2 886.4
20240415194802 0 331 4.3 8.7 0.00 0.00 0.00 2 886.4
20240415194301 0 286 6.1 13.9 0.00 0.00 0.00 2 886.4
20240415193802 0 291 5.2 12.2 0.00 0.00 0.00 2 886.4
20240415192801 0 300 5.2 11.3 0.00 0.00 0.00 2 886.4
20240415192301 0 285 5.2 13.0 0.00 0.00 0.00 2 886.4
20240415191802 0 315 7.8 13.9 0.00 0.00 0.00 2 886.4
20240415191301 0 301 4.3 13.0 0.00 0.00 0.00 2 886.4
20240415190801 0 286 7.8 20.0 0.00 0.00 0.00 2 886.4
20240415190302 0 293 6.1 18.2 0.00 0.00 0.00 2 886.4
20240415185802 0 274 6.1 15.6 0.00 0.00 0.00 2 886.4
20240415184801 0 301 9.6 17.4 0.00 0.00 0.00 2 886.4
20240415184301 0 264 5.2 18.2 0.00 0.00 0.00 2 886.4
20240415183802 0 298 7.8 15.6 0.00 0.00 0.00 2 886.4
20240415183303 0 282 3.5 7.8 0.00 0.00 0.00 2 886.4
20240415182801 0 266 5.2 13.0 0.00 0.00 0.00 2 886.4
20240415182302 0 306 4.3 13.0 0.00 0.00 0.00 2 886.4
20240415181801 0 350 4.3 14.8 0.00 0.00 0.00 2 886.4
20240415181301 0 307 4.3 13.9 0.00 0.00 0.00 2 886.4
20240415180802 0 308 6.1 13.9 0.00 0.00 0.00 2 886.4
20240415180301 0 311 7.0 13.9 0.00 0.00 0.00 2 886.4
20240415175301 0 309 5.2 18.2 0.00 0.00 0.00 2 886.4
20240415174802 0 302 7.8 17.4 0.00 0.00 0.00 2 886.4
20240415174301 0 292 6.1 12.2 0.00 0.00 0.00 2 886.4
20240415173301 0 282 12.2 22.6 0.00 0.00 0.00 2 886.4
20240415172801 0 288 6.1 13.0 0.00 0.00 0.00 2 886.4
20240415172302 0 292 5.2 12.2 0.00 0.00 0.00 2 886.4
20240415171803 0 282 7.0 14.8 0.00 0.00 0.00 2 886.4
20240415171302 0 271 6.1 14.8 0.00 0.00 0.00 2 886.4
20240415170801 0 222 4.3 7.8 0.00 0.00 0.00 2 886.4
20240415170302 0 288 4.3 7.8 0.00 0.00 0.00 2 886.4
20240415165801 0 296 4.3 11.3 0.00 0.00 0.00 2 886.4
20240415165301 0 300 5.2 7.8 0.00 0.00 0.00 2 886.4
20240415164802 0 262 4.3 8.7 0.00 0.00 0.00 2 886.4
20240415164301 0 66 0.9 6.1 0.00 0.00 0.00 2 886.4
20240415163302 0 312 3.5 10.4 0.00 0.00 0.00 2 886.4
20240415162801 0 323 1.7 7.8 0.00 0.00 0.00 2 886.4
20240415162301 0 304 4.3 7.8 0.00 0.00 0.00 2 886.4
20240415161801 0 256 4.3 7.0 0.00 0.00 0.00 2 886.4
20240415160301 0 181 2.6 7.8 0.00 0.00 0.00 2 886.4
20240415155801 0 327 4.3 8.7 0.00 0.00 0.00 2 886.4
20240415154301 0 252 3.5 7.0 0.00 0.00 0.00 2 886.4
20240415153801 0 239 4.3 7.8 0.00 0.00 0.00 2 886.4
20240415152301 0 325 2.6 7.0 0.00 0.00 0.00 2 886.4
20240415151802 0 279 1.7 4.3 0.00 0.00 0.00 2 886.4
20240415151301 0 266 1.7 6.1 0.00 0.00 0.00 2 886.4
20240415150801 0 344 1.7 6.1 0.00 0.00 0.00 2 886.4
20240415150302 0 292 3.5 6.1 0.00 0.00 0.00 2 886.4
20240415145801 0 301 2.6 5.2 0.00 0.00 0.00 2 886.4
20240415145301 0 302 2.6 4.3 0.00 0.00 0.00 2 886.4
20240415144801 0 285 2.6 6.1 0.00 0.00 0.00 2 886.4
20240415144303 0 323 1.7 6.1 0.00 0.00 0.00 2 886.4
20240415143801 0 299 3.5 7.8 0.00 0.00 0.00 2 886.4
20240415142301 0 283 1.7 4.3 0.00 0.00 0.00 2 886.4
20240415141801 0 257 1.7 4.3 0.00 0.00 0.00 2 886.4
20240415141301 0 196 0.0 4.3 0.00 0.00 0.00 2 886.4
20240415140802 0 163 1.7 2.6 0.00 0.00 0.00 2 886.4
20240415140302 0 331 2.6 6.1 0.00 0.00 0.00 2 886.4
20240415135801 0 294 2.6 7.0 0.00 0.00 0.00 2 886.4
20240415135301 0 203 1.7 4.3 0.00 0.00 0.00 2 886.4
20240415134302 0 359 0.9 1.7 0.00 0.00 0.00 2 886.4
20240415133802 0 230 0.9 2.6 0.00 0.00 0.00 2 886.4
20240415133303 0 255 1.7 5.2 0.00 0.00 0.00 2 886.4
20240415132801 0 223 1.7 4.3 0.00 0.00 0.00 2 886.4
20240415132301 0 258 1.7 2.6 0.00 0.00 0.00 2 886.4
20240415131801 0 237 2.6 5.2 0.00 0.00 0.00 2 886.4
20240415130801 0 291 0.0 0.9 0.00 0.00 0.00 2 886.4
20240415130301 0 182 0.0 2.6 0.00 0.00 0.00 2 886.4
20240415125801 0 160 0.9 1.7 0.00 0.00 0.00 2 886.4
20240415125302 0 157 0.0 1.7 0.00 0.00 0.00 2 886.4
20240415124801 0 185 0.9 1.7 0.00 0.00 0.00 2 886.4
20240415124303 0 275 0.0 0.0 0.00 0.00 0.00 2 886.4
20240415123301 0 275 0.0 0.0 0.00 0.00 0.00 2 886.4
20240415122803 0 275 0.9 4.3 0.00 0.00 0.00 2 886.4
20240415122302 0 291 0.0 0.0 0.00 0.00 0.00 2 886.4
20240415121301 0 291 0.0 0.0 0.00 0.00 0.00 2 886.4
20240415120801 0 291 0.0 0.9 0.00 0.00 0.00 2 886.4
20240415120302 0 292 0.0 1.7 0.00 0.00 0.00 2 886.4
20240415115803 0 186 0.0 0.9 0.00 0.00 0.00 2 886.4
20240415115301 0 193 0.0 1.7 0.00 0.00 0.00 2 886.4
20240415114801 0 164 0.0 0.0 0.00 0.00 0.00 2 886.4
20240415114302 0 164 0.0 0.0 0.00 0.00 0.00 2 886.4
20240415113301 0 164 0.0 0.0 0.00 0.00 0.00 2 886.4
20240415112801 0 164 0.0 0.0 0.00 0.00 0.00 2 886.4
20240415112301 0 164 0.0 0.0 0.00 0.00 0.00 2 886.4
20240415111802 0 164 0.0 0.0 0.00 0.00 0.00 2 886.4
20240415111301 0 164 0.0 0.0 0.00 0.00 0.00 2 886.4
20240415110302 0 164 0.0 0.0 0.00 0.00 0.00 2 886.4
20240415105801 0 164 0.0 0.0 0.00 0.00 0.00 2 886.4
20240415105301 0 164 0.0 0.0 0.00 0.00 0.00 2 886.4
20240415104301 0 164 0.0 0.0 0.00 0.00 0.00 2 886.4
20240415103802 0 164 0.0 0.0 0.00 0.00 0.00 2 886.4
20240415103302 0 164 0.0 0.0 0.00 0.00 0.00 2 886.4
20240415102801 0 164 0.0 0.0 0.00 0.00 0.00 2 886.4
20240415102303 0 164 0.0 0.0 0.00 0.00 0.00 2 886.4
20240415101802 0 164 0.0 0.0 0.00 0.00 0.00 2 886.4
20240415101301 0 164 0.0 0.0 0.00 0.00 0.00 2 886.4
20240415100302 0 164 0.0 0.0 0.00 0.00 0.00 2 886.4
20240415095801 0 164 0.0 0.0 0.00 0.00 0.00 2 886.4
20240415095303 0 164 0.0 0.0 0.00 0.00 0.00 2 886.4
20240415094803 0 164 0.0 0.0 0.00 0.00 0.00 2 886.4
20240415094301 0 164 0.0 0.0 0.00 0.00 0.00 2 886.4
20240415093801 0 164 0.0 0.0 0.00 0.00 0.00 2 886.4
20240415093303 0 164 0.0 0.0 0.00 0.00 0.00 2 886.4
20240415092301 0 164 0.0 0.0 0.00 0.00 0.00 2 886.4
20240415091802 0 164 0.0 0.0 0.00 0.00 0.00 2 886.4
20240415091301 0 164 0.0 0.0 0.00 0.00 0.00 2 886.4
20240415090803 0 164 0.0 0.0 0.00 0.00 0.00 2 886.4
20240415090302 0 164 0.0 0.0 0.00 0.00 0.00 2 886.4
20240415085802 0 164 0.0 0.0 0.00 0.00 0.00 2 886.4
20240415085301 0 164 0.0 0.0 0.00 0.00 0.00 2 886.4
20240415084801 0 164 0.0 0.0 0.00 0.00 0.00 2 886.4
20240415084302 0 164 0.0 0.0 0.00 0.00 0.00 2 886.4
20240415083802 0 164 0.0 0.0 0.00 0.00 0.00 2 886.4
20240415083301 0 164 0.0 0.0 0.00 0.00 0.00 2 886.4
20240415082802 0 164 0.0 0.0 0.00 0.00 0.00 2 886.4
20240415082303 0 164 0.0 0.0 0.00 0.00 0.00 2 886.4
20240415081803 0 164 0.0 0.0 0.00 0.00 0.00 2 886.4
20240415081302 0 164 0.0 0.0 0.00 0.00 0.00 2 886.4
20240415080803 0 164 0.0 0.0 0.00 0.00 0.00 2 886.4
20240415080302 0 164 0.0 0.0 0.00 0.00 0.00 2 886.4
20240415075801 0 164 0.0 0.0 0.00 0.00 0.00 2 886.4
20240415075301 0 164 0.0 0.0 0.00 0.00 0.00 2 886.4
20240415074801 0 164 0.0 0.0 0.00 0.00 0.00 2 886.4
20240415074302 0 164 0.0 0.0 0.00 0.00 0.00 2 886.4
20240415073803 0 164 0.0 0.0 0.00 0.00 0.00 2 886.4
20240415072301 0 164 0.0 0.0 0.00 0.00 0.00 2 886.4
20240415071803 0 164 0.0 0.0 0.00 0.00 0.00 2 886.4
20240415071301 0 164 0.0 0.0 0.00 0.00 0.00 2 886.4
20240415070803 0 164 0.0 0.0 0.00 0.00 0.00 2 886.4
20240415065301 0 164 0.0 0.0 0.00 0.00 0.00 2 886.4
20240415064802 0 164 0.0 0.0 0.00 0.00 0.00 2 886.4
20240415064302 0 164 0.0 0.0 0.00 0.00 0.00 2 886.4
20240415063801 0 164 0.0 0.0 0.00 0.00 0.00 2 886.4
20240415063301 0 164 0.0 0.0 0.00 0.00 0.00 2 886.4
20240415062802 0 164 0.0 0.0 0.00 0.00 0.00 2 886.4
20240415061801 0 164 0.0 0.0 0.00 0.00 0.00 2 886.4
20240415061301 0 164 0.0 0.0 0.00 0.00 0.00 2 886.4
20240415060802 0 164 0.0 0.0 0.00 0.00 0.00 2 886.4
20240415055801 0 164 0.0 0.0 0.00 0.00 0.00 2 886.4
20240415054802 0 164 0.0 0.0 0.00 0.00 0.00 2 886.4
20240415054303 0 164 0.0 0.0 0.00 0.00 0.00 2 886.4
20240415053801 0 164 0.0 0.0 0.00 0.00 0.00 2 886.4
20240415053301 0 164 0.0 0.0 0.00 0.00 0.00 2 886.4
20240415052801 0 164 0.0 0.0 0.00 0.00 0.00 2 886.4
20240415052302 0 164 0.0 0.0 0.00 0.00 0.00 2 886.4
20240415051802 0 164 0.0 0.0 0.00 0.00 0.00 2 886.4
20240415051301 0 164 0.0 0.0 0.00 0.00 0.00 2 886.4
20240415050801 0 164 0.0 0.0 0.00 0.00 0.00 2 886.4
20240415050301 0 164 0.0 0.0 0.00 0.00 0.00 2 886.4
20240415045803 0 164 0.0 0.0 0.00 0.00 0.00 2 886.4
20240415045302 0 164 0.0 0.0 0.00 0.00 0.00 2 886.4
20240415044801 0 164 0.0 0.0 0.00 0.00 0.00 2 886.4
20240415044301 0 164 0.0 0.0 0.00 0.00 0.00 2 886.4
20240415043803 0 164 0.0 0.0 0.00 0.00 0.00 2 886.4
20240415040802 0 164 0.0 0.0 0.00 0.00 0.00 2 886.4
20240415040302 0 164 0.0 0.0 0.00 0.00 0.00 2 886.4